This demonstration page uses our WeatherBlox Daily Observations layout. Learn more.

Left ArrowRight Arrow

Hourly Observations for August 2, 2021

Temp ( °F °C ) Dew Point ( °F °C ) Humidity (%) Winds ( mph kmh ) Pressure ( in mb ) Visibility ( mi km ) Precip ( " mm )
12:59 am 00:59 Partly Cloudy 77 25 72 22.2 85 85 NW 6 9 29.88 1012 8 13 0.00 0.00
1:59 am 01:59 Mostly Clear 74 23.3 71 21.7 91 91 NW 3 6 29.87 1012 10 16 0.00 0.00
2:59 am 02:59 Mostly Clear 76 24.4 71 21.7 85 85 undefined N/A 29.88 1012 10 16 0.00 0.00
3:49 am 03:49 Partly Cloudy 76 24.4 72 22.2 88 88 NW 5 7 29.89 1012 10 16 0.00 0.00
3:54 am 03:54 Cloudy 77 25 72 22 83 83 NNW 7 11 29.89 1012 10 16 0.00 0.00
3:59 am 03:59 Cloudy 77 25 72 22.2 85 85 NNW 7 11 29.89 1012 10 16 0.00 0.00
4:25 am 04:25 Partly Cloudy 76 24.4 71 21.7 85 85 N 9 15 29.90 1013 10 16 0.00 0.00
4:59 am 04:59 Mostly Clear 76 24.4 70 21.1 82 82 N 8 13 29.91 1013 7 11 0.00 0.00
5:59 am 05:59 Partly Cloudy 75 23.9 70 21.1 84 84 N 10 17 29.94 1014 10 16 0.00 0.00
6:26 am 06:26 Mostly Cloudy with Haze 75 23.9 70 21.1 84 84 N 10 17 29.96 1015 5 8 0.00 0.00
6:59 am 06:59 Mostly Cloudy 74 23.3 68 20 82 82 N 13 20 29.97 1015 8 13 0.00 0.00
7:59 am 07:59 Mostly Cloudy 75 23.9 67 19.4 76 76 N 13 20 29.99 1016 8 13 0.00 0.00
8:59 am 08:59 Mostly Cloudy 77 25 65 18.3 66 66 N 14 22 30.00 1016 8 13 0.00 0.00
9:59 am 09:59 Mostly Cloudy 78 25.6 65 18.3 64 64 N 14 22 30.01 1016 10 16 0.00 0.00
10:59 am 10:59 Partly Cloudy 79 26.1 65 18.3 62 62 N 14 22 30.03 1017 10 16 0.00 0.00
11:59 am 11:59 Partly Cloudy 80 26.7 62 16.7 54 54 NNE 12 19 30.04 1017 10 16 0.00 0.00
12:59 pm 12:59 Mostly Cloudy 81 27.2 64 17.8 57 57 N 13 20 30.04 1017 10 16 0.00 0.00
1:59 pm 13:59 Mostly Cloudy 81 27.2 63 17.2 54 54 N 9 15 30.04 1017 10 16 0.00 0.00
2:59 pm 14:59 Partly Cloudy 82 27.8 62 16.7 51 51 NE 12 19 30.04 1017 10 16 0.00 0.00
3:59 pm 15:59 Mostly Sunny 81 27.2 62 16.7 53 53 NE 12 19 30.04 1017 10 16 0.00 0.00
4:59 pm 16:59 Mostly Sunny 81 27.2 61 16.1 51 51 E 9 15 30.04 1017 10 16 0.00 0.00
5:59 pm 17:59 Mostly Cloudy 80 26.7 61 16.1 52 52 ENE 10 17 30.04 1017 7 11 0.00 0.00
6:59 pm 18:59 Mostly Cloudy 78 25.6 61 16.1 56 56 NE 9 15 30.04 1017 7 11 0.00 0.00
7:59 pm 19:59 Mostly Cloudy 78 25.6 59 15 52 52 ENE 7 11 30.05 1018 7 11 0.00 0.00
8:59 pm 20:59 Mostly Cloudy 77 25 58 14.4 52 52 E 8 13 30.06 1018 8 13 0.00 0.00
9:59 pm 21:59 Partly Cloudy 77 25 56 13.3 48 48 E 6 9 30.09 1019 8 13 0.00 0.00
10:59 pm 22:59 Mostly Cloudy 75 23.9 58 14.4 55 55 ESE 3 6 30.09 1019 8 13 0.00 0.00
11:59 pm 23:59 Partly Cloudy 71 21.7 60 15.6 68 68 ESE 5 7 30.09 1019 8 13 0.00 0.00

Powered by AerisWeather